Sergeant Bluff, IA

4:06 AM CDT on September 27, 2016 (GMT -0500)
Sioux Gateway

Weather History for KSUX - March, 2012

Change the Weather History Date:

Thursday, March 1, 2012

  Actual Average Record
Temperature  
Mean Temperature 30 °F 30 °F  
Max Temperature 37 °F 40 °F 77 °F (1992)
Min Temperature 22 °F 20 °F -15 °F (1962)
Degree Days  
Heating Degree Days 35 35  
Month to date heating degree days 35 35  
Since 1 July heating degree days 4815 5329  
Cooling Degree Days 0 0  
Month to date cooling degree days 0 0  
Year to date cooling degree days 0 0  
Moisture  
Dew Point 26 °F    
Average Humidity 88    
Maximum Humidity 100    
Minimum Humidity 75    
Precipitation  
Precipitation T in 0.04 in 0.57 in (1965)
Month to date precipitation T 0.04  
Year to date precipitation 2.77 1.33  
Snow  
Snow T in 0.30 in 8.70 in (2007)
Month to date snowfall T 0.3  
Since 1 July snowfall 18.3 26.8  
Snow Depth 0.00 in    
Sea Level Pressure  
Sea Level Pressure 29.81 in    
Wind  
Wind Speed 5 mph (NE)    
Max Wind Speed 10 mph    
Max Gust Speed 14 mph    
Visibility 9 miles    
Events      
T = Trace of Precipitation, MM = Missing Value Source: NWS Daily Summary

Daily Weather History Graph

Daily Weather History Graph

Search for Another Location

Airport or City:

Trip Planner

Search our weather history database for the weather conditions in past years. The results will help you decide how hot, cold, wet, or windy it might be!

Date:

Astronomy

Mar. 01, 2012 Rise Set
Actual Time 7:00 AM CST 6:16 PM CST
Civil Twilight 6:31 AM CST 6:44 PM CST
Nautical Twilight 5:59 AM CST 7:16 PM CST
Astronomical Twilight 5:26 AM CST 7:49 PM CST
Moon 11:31 AM CST (3/1) 2:05 AM CST (3/1)
Length of Visible Light 12h 12m
Length of Day
11h 15m
First Quarter, 57% of the Moon is Illuminated
Mar 1
First Quarter
Mar 8
Full
Mar 14
Last Quarter
Mar 22
New
Mar 30
First Quarter

Hourly Weather History & Observations

Time (CST) Temp. Windchill Dew Point Humidity Pressure Visibility Wind Dir Wind Speed Gust Speed Precip Events Conditions
12:52 AM 26.1 °F 17.6 °F 23.0 °F 88% 29.86 in 10.0 mi North 8.1 mph - N/A   Clear
1:52 AM 26.1 °F - 21.9 °F 84% 29.88 in 10.0 mi Calm Calm - N/A   Clear
2:52 AM 25.0 °F 20.7 °F 21.9 °F 88% 29.90 in 10.0 mi West 3.5 mph - N/A   Clear
3:52 AM 23.0 °F 18.4 °F 19.9 °F 88% 29.85 in 9.0 mi ENE 3.5 mph - N/A   Clear
4:52 AM 21.2 °F 14.9 °F 21.2 °F 100% 29.77 in 7.0 mi NE 4.6 mph - N/A   Clear
5:52 AM 24.1 °F 16.0 °F 21.9 °F 91% 29.84 in 7.0 mi South 6.9 mph - N/A   Clear
6:52 AM 24.1 °F 19.7 °F 21.9 °F 91% 29.85 in 6.0 mi South 3.5 mph - N/A   Clear
7:52 AM 26.1 °F - 24.1 °F 92% 29.85 in 5.0 mi Calm Calm - N/A   Clear
8:52 AM 28.0 °F 21.7 °F 26.1 °F 92% 29.85 in 8.0 mi SE 5.8 mph - N/A   Clear
9:52 AM 28.9 °F 21.9 °F 26.1 °F 89% 29.83 in 5.0 mi SE 6.9 mph - N/A   Overcast
10:52 AM 30.0 °F 22.4 °F 27.0 °F 88% 29.82 in 10.0 mi SE 8.1 mph - N/A   Overcast
11:52 AM 32.0 °F 24.2 °F 27.0 °F 82% 29.80 in 10.0 mi SE 9.2 mph - N/A   Mostly Cloudy
12:52 PM 33.1 °F 30.0 °F 27.0 °F 78% 29.78 in 10.0 mi East 3.5 mph - N/A   Overcast
1:52 PM 34.0 °F 28.8 °F 28.0 °F 79% 29.77 in 10.0 mi NNW 5.8 mph - 0.00 in   Overcast
2:52 PM 36.0 °F 28.5 °F 28.9 °F 76% 29.73 in 10.0 mi NE 10.4 mph - 0.00 in   Mostly Cloudy
3:52 PM 36.0 °F 33.3 °F 28.9 °F 76% 29.75 in 10.0 mi ENE 3.5 mph - N/A   Overcast
4:52 PM 35.1 °F 32.2 °F 28.9 °F 78% 29.76 in 10.0 mi NNW 3.5 mph - N/A   Overcast
5:52 PM 35.1 °F 31.0 °F 30.0 °F 82% 29.76 in 10.0 mi NE 4.6 mph - N/A   Overcast
6:52 PM 33.1 °F - 28.9 °F 85% 29.82 in 10.0 mi Calm Calm - N/A   Overcast
7:52 PM 32.0 °F - 30.0 °F 92% 29.83 in 10.0 mi Calm Calm - N/A   Overcast
8:52 PM 30.2 °F 26.7 °F 28.4 °F 93% 29.78 in 8.0 mi NW 3.5 mph - N/A   Partly Cloudy
9:52 PM 30.9 °F 24.3 °F 28.0 °F 89% 29.81 in 7.0 mi NNW 6.9 mph - N/A   Mostly Cloudy
10:52 PM 28.0 °F 21.7 °F 26.1 °F 92% 29.81 in 10.0 mi NNW 5.8 mph - N/A   Clear
11:52 PM 30.9 °F - 28.9 °F 92% 29.82 in 10.0 mi Calm Calm - N/A   Overcast